Change the Weather History Date:

Tuesday, September 3, 2013

  Actual Average Record
Temperature  
Mean Temperature 74 °F -  
Max Temperature 82 °F 82 °F 87 °F (1996)
Min Temperature 66 °F 68 °F 64 °F (2011)
Cooling Degree Days 9    
Growing Degree Days 24 (Base 50)    
Moisture  
Dew Point 65 °F    
Average Humidity 72    
Maximum Humidity 87    
Minimum Humidity 52    
Precipitation  
Precipitation 0.02 in - - ()
Sea Level Pressure  
Sea Level Pressure 30.02 in    
Wind  
Wind Speed 7 mph (North)    
Max Wind Speed 14 mph    
Max Gust Speed -    
Visibility 9 miles    
Events Rain    
Averages and records for this station are not official NWS values.
T = Trace of Precipitation, MM = Missing Value Source: NWS Daily Summary

Daily Weather History Graph

Daily Weather History Graph

Search for Another Location

Airport or City:

Trip Planner

Search our weather history database for the weather conditions in past years. The results will help you decide how hot, cold, wet, or windy it might be!

Date:

Astronomy

Sep. 03, 2013 Rise Set
Actual Time 6:16 AM HST 6:46 PM HST
Civil Twilight 5:53 AM HST 7:08 PM HST
Nautical Twilight 5:27 AM HST 7:34 PM HST
Astronomical Twilight 5:00 AM HST 8:01 PM HST
Moon 4:46 AM HST (9/3) 5:38 PM HST (9/3)
Length of Visible Light 13h 14m
Length of Day
12h 29m
Waning Crescent, 3% of the Moon is Illuminated
Sep 3
Waning Crescent
Sep 5
New
Sep 12
First Quarter
Sep 19
Full
Sep 26
Last Quarter

Hourly Weather History & Observations

Time (HST) Temp. Heat Index Dew Point Humidity Pressure Visibility Wind Dir Wind Speed Gust Speed Precip Events Conditions
12:58 AM 70.3 °F - 63.3 °F 78% 30.04 in 10.0 mi WNW 3.5 mph - N/A   Clear
1:58 AM 68.5 °F - 62.8 °F 82% 30.03 in 10.0 mi WNW 5.8 mph - N/A   Partly Cloudy
2:58 AM 66.6 °F - 62.1 °F 85% 30.01 in 10.0 mi WNW 8.1 mph - N/A   Clear
3:58 AM 67.5 °F - 63.1 °F 86% 30.00 in 10.0 mi WNW 6.9 mph - N/A   Clear
4:58 AM 66.9 °F - 62.2 °F 85% 30.00 in 10.0 mi WNW 6.9 mph - N/A   Clear
5:58 AM 66.7 °F - 62.8 °F 87% 30.02 in 10.0 mi WNW 5.8 mph - N/A   Clear
6:58 AM 68.5 °F - 63.5 °F 84% 30.03 in 10.0 mi WNW 6.9 mph - N/A   Clear
7:58 AM 75.0 °F - 64.9 °F 71% 30.05 in 10.0 mi Variable 1.2 mph - N/A   Clear
8:58 AM 76.5 °F - 64.8 °F 67% 30.07 in 10.0 mi NE 4.6 mph - N/A   Mostly Cloudy
9:46 AM 77.0 °F - 64.4 °F 65% 30.07 in 10.0 mi East 13.8 mph - N/A   Light Drizzle
9:58 AM 76.1 °F - 66.2 °F 71% 30.08 in 4.0 mi ENE 10.4 mph - 0.00 in Rain Light Rain
10:17 AM 73.4 °F - 68.0 °F 83% 30.07 in 9.0 mi West 4.6 mph - N/A   Mostly Cloudy
10:58 AM 76.8 °F - 68.0 °F 74% 30.06 in 10.0 mi East 6.9 mph - 0.01 in   Mostly Cloudy
11:58 AM 79.9 °F - 64.6 °F 59% 30.04 in 10.0 mi East 6.9 mph - N/A   Mostly Cloudy
12:58 PM 82.2 °F 83.5 °F 63.7 °F 53% 30.02 in 10.0 mi ENE 11.5 mph - N/A   Mostly Cloudy
1:58 PM 82.4 °F 83.9 °F 64.2 °F 54% 29.99 in 10.0 mi East 5.8 mph - 0.01 in   Mostly Cloudy
2:58 PM 81.5 °F 82.7 °F 63.0 °F 53% 29.97 in 10.0 mi NE 12.7 mph - N/A   Mostly Cloudy
3:58 PM 82.4 °F 83.5 °F 63.1 °F 52% 29.97 in 10.0 mi ENE 12.7 mph - N/A   Clear
4:55 PM 78.8 °F - 68.0 °F 69% 29.99 in 6.0 mi East 11.5 mph - N/A Rain Light Rain
4:58 PM 78.8 °F - 67.5 °F 68% 29.99 in 6.0 mi ENE 11.5 mph - N/A Rain Light Rain
5:02 PM 75.2 °F - 66.2 °F 73% 29.99 in 7.0 mi East 6.9 mph - N/A   Overcast
5:58 PM 76.8 °F - 66.2 °F 70% 29.99 in 10.0 mi ENE 8.1 mph - 0.00 in   Partly Cloudy
6:58 PM 75.4 °F - 64.4 °F 69% 30.00 in 10.0 mi North 8.1 mph - N/A   Partly Cloudy
7:58 PM 73.6 °F - 64.2 °F 72% 30.01 in 10.0 mi NW 4.6 mph - N/A   Partly Cloudy
8:58 PM 72.7 °F - 64.0 °F 74% 30.03 in 10.0 mi Variable 3.5 mph - N/A   Scattered Clouds
9:58 PM 72.1 °F - 64.0 °F 76% 30.04 in 10.0 mi NW 2.3 mph - N/A   Clear
10:58 PM 68.9 °F - 63.5 °F 83% 30.04 in 10.0 mi WNW 5.8 mph - N/A   Clear
11:58 PM 69.4 °F - 63.7 °F 82% 30.04 in 10.0 mi NW 3.5 mph - N/A   Clear